Regional Weather Roundup
Issued by NWS

Home | Current Version | Previous Version | Graphics & Text | Print | Product List | Glossary On
Versions: 1 2 3 4 5 6 7 8 9 10 11 12 13 14 15 16 17 18 19 20 21 22 23 24 25 26 27 28 29 30 31 32 33 34 35 36 37 38 39 40 41 42 43 44 45 46 47 48 49 50
000
ASUS44 KMEG 300200
RWRTN
TENNESSEE HOURLY STATE WEATHER ROUNDUP
NATIONAL WEATHER SERVICE MEMPHIS TN
900 PM CDT FRI JUL 29 2016

TNZ002-004-019-021-049-052-054-088>092-300300-
WEST TENNESSEE

CITY           SKY/WX    TMP DP  RH WIND       PRES   REMARKS
MEMPHIS INTL   LGT RAIN  74  71  91 CALM      29.95R
NWS MEMPHIS      N/A     73 N/A N/A MISG        N/A
JACKSON        LGT RAIN  74  73  97 S6        29.96F
DYERSBURG      CLOUDY   N/A N/A N/A MISG        N/A
UNION CITY     CLEAR     73  72  94 SE8       29.91F
PARIS          MOCLDY    70  68  94 CALM      29.98F
LEXINGTON      CLOUDY    73  72  94 S7        29.99R
$$

TNZ008-025-027-028-033-062-065-066-300300-
NORTH MIDDLE TENNESSEE

CITY           SKY/WX    TMP DP  RH WIND       PRES   REMARKS
NASHVILLE      CLOUDY    82  73  74 VRB3      29.97R
CLARKSVILLE    CLOUDY    74  72  93 CALM      29.97R
COOKEVILLE     PTCLDY    75  73  94 S5        29.98R
CROSSVILLE     CLEAR     71  69  93 CALM      30.04R
$$

TNZ061-075-076-078-094-096-097-300300-
SOUTH MIDDLE TENNESSEE

CITY           SKY/WX    TMP DP  RH WIND       PRES   REMARKS
TULLAHOMA      CLEAR     75  72  88 CALM      30.02R
WINCHESTER     CLEAR     77  73  88 CALM      30.01R
MCMINNVILLE    PTCLDY    77  77 100 SW3G58    30.00R
COLUMBIA       MOCLDY   N/A N/A N/A SW7       29.99R
SHELBYVILLE    MOCLDY    79  75  89 W10       30.01R
$$

TNZ017-018-042-046-047-300300-
NORTHEAST TENNESSEE

CITY           SKY/WX    TMP DP  RH WIND       PRES   REMARKS
TRI CITIES     PTCLDY    70  68  93 CALM      30.03S
$$

TNZ012-013-036-069-073-074-300300-
CENTRAL EAST TENNESSEE

CITY           SKY/WX    TMP DP  RH WIND       PRES   REMARKS
KNOXVILLE      MOCLDY    74  72  93 SE5       29.99R
OAK RIDGE      CLEAR     77  71  82 CALM      30.01R
GATLINBURG     MOCLDY    72  70  94 CALM      30.00S
$$

TNZ083-085-099-300300-
SOUTHEAST TENNESSEE

CITY           SKY/WX    TMP DP  RH WIND       PRES   REMARKS
CHATTANOOGA    CLOUDY    84  70  62 CALM      29.99R
$$

SKY/WX REPORTED AS FAIR MEANS FEW OR NO CLOUDS BELOW
12 THOUSAND FEET.





USA.gov is the U.S. government's official web portal to all federal, state and local government web resources and services.